EDT,Max TemperatureF,Mean TemperatureF,Min TemperatureF,Max Dew PointF,MeanDew PointF,Min DewpointF,Max Humidity, Mean Humidity, Min Humidity, Max Sea Level PressureIn, Mean Sea Level PressureIn, Min Sea Level PressureIn, Max VisibilityMiles, Mean VisibilityMiles, Min VisibilityMiles, Max Wind SpeedMPH, Mean Wind SpeedMPH, Max Gust SpeedMPH,PrecipitationIn, CloudCover, Events, WindDirDegrees
2012-8-1,80,72,64,66,64,61,93,74,54,29.92,29.89,29.86,10,10,10,13,5,16,0.00,1,,303
2012-8-2,88,76,64,66,63,59,93,66,39,29.94,29.90,29.86,10,10,8,12,6,15,0.00,0,,214
2012-8-3,90,80,70,66,62,57,78,58,38,30.00,29.96,29.90,10,10,10,14,7,18,0.00,0,,130
2012-8-4,94,85,75,69,68,65,82,63,44,30.04,29.98,29.92,10,9,7,21,13,26,0.00,1,,172
2012-8-5,83,78,73,72,70,60,87,74,60,30.04,29.94,29.88,10,8,1,25,13,35,0.34,5,Rain,228
2012-8-6,75,67,59,61,54,52,78,62,46,30.16,30.10,30.04,10,10,10,15,7,18,0.00,0,,6
2012-8-7,81,71,60,62,57,51,78,62,45,30.04,29.99,29.94,10,10,10,13,6,17,0.00,0,,224
2012-8-8,84,75,66,70,62,54,73,60,46,29.96,29.94,29.91,10,10,10,14,6,18,0.00,2,Thunderstorm,229
2012-8-9,78,71,63,65,61,56,90,70,50,29.96,29.89,29.81,10,10,2,12,5,16,0.12,3,Rain,54
2012-8-10,74,70,65,65,63,61,93,81,68,29.78,29.71,29.67,10,8,0,20,8,25,0.44,6,Fog-Rain-Thunderstorm,184
2012-8-11,73,67,60,62,58,55,93,77,61,29.91,29.80,29.72,10,9,4,23,14,32,0.13,7,Rain,194
2012-8-12,74,69,63,63,61,59,93,77,61,30.01,29.95,29.90,10,8,1,16,9,23,0.26,7,Rain,229
2012-8-13,80,72,63,63,59,56,93,72,50,30.03,29.99,29.96,10,10,5,14,6,18,0.09,3,Rain,215
2012-8-14,74,69,64,64,62,61,93,81,68,29.96,29.89,29.86,10,9,7,13,5,24,T,7,Rain,203
2012-8-15,77,70,62,64,61,53,93,70,46,29.98,29.94,29.89,10,8,4,12,5,15,0.00,3,,239
2012-8-16,83,72,61,64,61,57,90,68,45,30.00,29.92,29.80,10,9,7,15,7,21,0.00,1,,194
2012-8-17,75,72,68,64,60,54,78,68,57,29.93,29.86,29.78,10,9,2,16,8,22,0.19,5,Rain,283
2012-8-18,71,63,55,54,48,37,80,55,29,30.02,29.98,29.94,10,10,10,10,4,15,0.00,2,,2
2012-8-19,76,65,54,52,48,42,71,55,38,29.98,29.93,29.88,10,10,10,12,4,15,0.00,1,,24
2012-8-20,74,66,58,61,55,51,84,69,53,29.99,29.93,29.89,10,10,7,14,5,17,0.00,1,,277
2012-8-21,76,66,55,56,52,48,86,64,41,30.11,30.06,30.00,10,8,5,12,4,15,0.00,1,,199
2012-8-22,77,68,58,60,56,52,86,70,53,30.16,30.13,30.10,10,9,6,13,6,16,0.00,0,,228
2012-8-23,81,71,60,61,54,49,72,53,33,30.17,30.14,30.12,10,9,7,10,5,13,0.00,0,,225
2012-8-24,85,74,63,62,56,52,67,54,40,30.16,30.13,30.11,10,10,8,13,7,17,0.00,0,,87
2012-8-25,90,79,68,62,58,52,73,51,29,30.19,30.15,30.12,10,8,6,17,10,24,0.00,0,,159
2012-8-26,87,77,66,64,61,55,73,59,45,30.22,30.15,30.07,9,7,5,18,12,24,0.00,1,,160
2012-8-27,76,72,68,70,67,62,97,81,64,30.08,30.00,29.93,9,4,1,18,7,23,0.84,7,Rain,176
2012-8-28,76,71,65,70,63,58,97,77,57,30.06,30.00,29.96,10,8,1,18,8,24,0.00,4,,306
2012-8-29,72,64,56,58,53,49,93,69,44,30.11,30.07,30.04,10,10,7,15,5,18,0.00,0,,37
2012-8-30,78,66,54,60,54,48,83,61,39,30.14,30.09,30.04,10,9,7,12,6,17,0.00,0,,212
2012-8-31,87,77,67,71,59,52,79,55,31,30.06,30.02,29.97,10,9,5,25,12,37,0.00,0,,230